Location: Unspecified
(0.0000°N, 0.0000°E)
Time: 09:29:00
(UTC+00:00)

HTV-X1 - Pass Details

Date: 10 April 2026
Orbit: 463 x 473 km, 51.6° (Epoch: 10 April)

Event Time Altitude Azimuth Distance (km) Brightness Sun altitude
Exits shadow 05:00:42 - 197° (SSW) 1,874 ? -15.0°
Reaches altitude 10° 05:01:24 10° 194° (SSW) 1,610 ? -14.9°
Maximum altitude 05:04:46 36° 126° (SE) 747 ? -14.0°
Drops below altitude 10° 05:08:08 10° 57° (ENE) 1,608 ? -13.2°
Sets 05:10:23 0° 49° (NE) 2,483 ? -12.6°
